OHCOT EFIV-EFIV

Flight info

Callsign OHCOT
Flight time 0h 32m
Altitude 4000
Route TOUCH AND GO / AREA FLIGHT
Aircraft C152/L-SFG/C

Departure

Time 2026-04-24 23:52
Airport Ivalo Airport (EFIV)

Arrival

Time 2026-04-25 00:24
Airport Ivalo Airport (EFIV)
Time Latitude Longitude Altitude Speed Heading
2026-04-24 23:44 68.60821 27.41776 477 ft 0 kts 135°
2026-04-24 23:48 68.60821 27.41795 477 ft 4 kts 33°
2026-04-24 23:48 68.60855 27.41686 471 ft 11 kts 315°
2026-04-24 23:49 68.60895 27.41677 474 ft 8 kts 50°
2026-04-24 23:49 68.60947 27.41709 471 ft 10 kts 316°
2026-04-24 23:49 68.60977 27.41627 469 ft 0 kts 319°
2026-04-24 23:49 68.60984 27.41608 469 ft 6 kts 314°
2026-04-24 23:50 68.61025 27.41425 468 ft 16 kts 261°
2026-04-24 23:50 68.61009 27.41355 468 ft 0 kts 224°
2026-04-24 23:50 68.60985 27.41283 468 ft 13 kts 227°
2026-04-24 23:50 68.60810 27.40772 470 ft 63 kts 229°
2026-04-24 23:51 68.60588 27.40125 561 ft 73 kts 231°
2026-04-24 23:51 68.60229 27.39083 720 ft 77 kts 229°
2026-04-24 23:51 68.60042 27.37794 908 ft 77 kts 287°
2026-04-24 23:51 68.60493 27.37049 1041 ft 87 kts
2026-04-24 23:52 68.61006 27.37855 1269 ft 84 kts 26°
2026-04-24 23:52 68.61529 27.37631 1386 ft 87 kts 308°
2026-04-24 23:52 68.61772 27.35996 1361 ft 97 kts 294°
2026-04-24 23:52 68.62236 27.34896 1454 ft 95 kts
2026-04-24 23:53 68.62865 27.35576 1521 ft 100 kts 27°
2026-04-24 23:53 68.63444 27.36651 1551 ft 101 kts 29°
2026-04-24 23:53 68.64036 27.37653 1623 ft 101 kts 30°
2026-04-24 23:53 68.64612 27.38783 1636 ft 102 kts 31°
2026-04-24 23:54 68.65207 27.39951 1525 ft 110 kts 32°
2026-04-24 23:54 68.65809 27.41178 1493 ft 101 kts 34°
2026-04-24 23:54 68.66356 27.42325 1487 ft 95 kts 32°
2026-04-24 23:54 68.66863 27.43374 1542 ft 89 kts 29°
2026-04-24 23:55 68.67334 27.44513 1544 ft 93 kts 32°
2026-04-24 23:55 68.67806 27.45718 1627 ft 86 kts 38°
2026-04-24 23:55 68.68267 27.46932 1539 ft 99 kts 44°
2026-04-24 23:55 68.68768 27.48223 1502 ft 98 kts 46°
2026-04-24 23:56 68.69235 27.49651 1340 ft 106 kts 46°
2026-04-24 23:56 68.69662 27.51189 1281 ft 103 kts 56°
2026-04-24 23:56 68.69981 27.52948 1218 ft 101 kts 64°
2026-04-24 23:56 68.70251 27.54721 1148 ft 105 kts 65°
2026-04-24 23:57 68.70548 27.56597 1091 ft 105 kts 64°
2026-04-24 23:57 68.70847 27.58430 1050 ft 105 kts 64°
2026-04-24 23:57 68.71143 27.60228 998 ft 103 kts 62°
2026-04-24 23:57 68.71403 27.62078 933 ft 107 kts 66°
2026-04-24 23:58 68.71589 27.64027 945 ft 106 kts 66°
2026-04-24 23:58 68.71938 27.65740 1036 ft 97 kts 35°
2026-04-24 23:58 68.72509 27.66497 1134 ft 90 kts 19°
2026-04-24 23:58 68.73059 27.67096 1281 ft 84 kts 15°
2026-04-24 23:59 68.73606 27.67518 1445 ft 78 kts
2026-04-24 23:59 68.74112 27.67870 1645 ft 73 kts 13°
2026-04-24 23:59 68.74622 27.68371 1675 ft 80 kts 13°
2026-04-24 23:59 68.75169 27.68873 1628 ft 86 kts 14°
2026-04-25 00:00 68.75720 27.69356 1581 ft 78 kts 12°
2026-04-25 00:00 68.76258 27.69826 1482 ft 84 kts 15°
2026-04-25 00:00 68.76778 27.70395 1483 ft 81 kts 17°
2026-04-25 00:00 68.77289 27.70880 1464 ft 80 kts 12°
2026-04-25 00:01 68.77853 27.71260 1382 ft 83 kts
2026-04-25 00:01 68.78409 27.71578 1366 ft 82 kts
2026-04-25 00:01 68.78892 27.71070 1284 ft 86 kts 296°
2026-04-25 00:01 68.78734 27.69565 1285 ft 91 kts 223°
2026-04-25 00:02 68.78115 27.69380 1311 ft 93 kts 161°
2026-04-25 00:02 68.77706 27.70564 1367 ft 92 kts 105°
2026-04-25 00:02 68.77897 27.72008 1314 ft 80 kts 15°
2026-04-25 00:02 68.78359 27.72124 1514 ft 64 kts
2026-04-25 00:03 68.78807 27.72262 1629 ft 67 kts
2026-04-25 00:03 68.79294 27.72496 1745 ft 70 kts
2026-04-25 00:03 68.79779 27.72656 1789 ft 74 kts
2026-04-25 00:03 68.80295 27.72835 1894 ft 73 kts
2026-04-25 00:04 68.80815 27.72951 2000 ft 74 kts 358°
2026-04-25 00:04 68.81303 27.72956 2194 ft 63 kts
2026-04-25 00:04 68.81844 27.73296 1958 ft 85 kts
2026-04-25 00:04 68.82362 27.73639 1820 ft 70 kts
2026-04-25 00:05 68.82810 27.74033 1661 ft 68 kts 13°
2026-04-25 00:05 68.83310 27.74514 1579 ft 82 kts 15°
2026-04-25 00:05 68.83823 27.74996 1645 ft 78 kts 13°
2026-04-25 00:05 68.84317 27.75554 1558 ft 84 kts 22°
2026-04-25 00:06 68.84868 27.76013 1514 ft 80 kts 16°
2026-04-25 00:06 68.85394 27.76693 1375 ft 88 kts 20°
2026-04-25 00:06 68.85960 27.77415 1417 ft 83 kts 19°
2026-04-25 00:06 68.86491 27.77941 1459 ft 84 kts 14°
2026-04-25 00:07 68.87069 27.78496 1441 ft 85 kts
2026-04-25 00:07 68.87650 27.78550 1428 ft 90 kts
2026-04-25 00:07 68.88270 27.78355 1446 ft 85 kts 347°
2026-04-25 00:07 68.88870 27.78267 1499 ft 82 kts 351°
2026-04-25 00:08 68.89427 27.78141 1532 ft 82 kts 349°
2026-04-25 00:08 68.89991 27.77859 1523 ft 89 kts 348°
2026-04-25 00:08 68.90613 27.77541 1457 ft 89 kts 347°
2026-04-25 00:08 68.91221 27.77369 1467 ft 81 kts 355°
2026-04-25 00:09 68.91729 27.76939 1541 ft 82 kts 359°
2026-04-25 00:09 68.92287 27.77346 1554 ft 84 kts 355°
2026-04-25 00:09 68.92777 27.76805 1593 ft 83 kts 308°
2026-04-25 00:09 68.92757 27.74991 1348 ft 109 kts 242°
2026-04-25 00:10 68.92052 27.74608 1314 ft 102 kts 178°
2026-04-25 00:10 68.91384 27.74783 1301 ft 95 kts 179°
2026-04-25 00:10 68.90725 27.74931 1262 ft 90 kts 181°
2026-04-25 00:10 68.90113 27.74776 1163 ft 92 kts 197°
2026-04-25 00:11 68.89560 27.73936 1079 ft 84 kts 221°
2026-04-25 00:11 68.89048 27.73100 1074 ft 92 kts 217°
2026-04-25 00:11 68.88509 27.72181 1168 ft 89 kts 212°
2026-04-25 00:11 68.87930 27.71434 1119 ft 99 kts 210°
2026-04-25 00:12 68.87354 27.70769 1251 ft 89 kts 205°
2026-04-25 00:12 68.86771 27.70227 1352 ft 87 kts 206°
2026-04-25 00:12 68.86167 27.69728 1359 ft 95 kts 203°
2026-04-25 00:12 68.85523 27.69256 1397 ft 97 kts 196°
2026-04-25 00:13 68.84849 27.69003 1446 ft 96 kts 194°
2026-04-25 00:13 68.84180 27.68842 1482 ft 100 kts 187°
2026-04-25 00:13 68.83481 27.68798 1533 ft 98 kts 187°
2026-04-25 00:13 68.82802 27.68837 1586 ft 99 kts 180°
2026-04-25 00:14 68.82102 27.68964 1591 ft 101 kts 182°
2026-04-25 00:14 68.81415 27.68998 1595 ft 99 kts 180°
2026-04-25 00:14 68.80729 27.69131 1562 ft 99 kts 179°
2026-04-25 00:14 68.80050 27.69131 1502 ft 96 kts 187°
2026-04-25 00:15 68.79419 27.68954 1491 ft 88 kts 193°
2026-04-25 00:15 68.78851 27.68689 1540 ft 80 kts 194°
2026-04-25 00:15 68.78284 27.68365 1473 ft 84 kts 199°
2026-04-25 00:15 68.77694 27.68017 1399 ft 88 kts 200°
2026-04-25 00:16 68.77132 27.67570 1461 ft 80 kts 204°
2026-04-25 00:16 68.76608 27.67055 1475 ft 81 kts 208°
2026-04-25 00:16 68.76085 27.66431 1492 ft 82 kts 211°
2026-04-25 00:16 68.75590 27.65693 1518 ft 80 kts 222°
2026-04-25 00:17 68.75132 27.64774 1509 ft 82 kts 224°
2026-04-25 00:17 68.74654 27.63803 1454 ft 79 kts 226°
2026-04-25 00:17 68.74265 27.62930 1319 ft 70 kts 232°
2026-04-25 00:17 68.73959 27.62071 1237 ft 73 kts 216°
2026-04-25 00:18 68.73468 27.61131 1198 ft 100 kts 226°
2026-04-25 00:18 68.72890 27.60087 1158 ft 93 kts 212°
2026-04-25 00:18 68.72322 27.59359 1096 ft 93 kts 202°
2026-04-25 00:18 68.71655 27.59334 1018 ft 102 kts 172°
2026-04-25 00:19 68.70997 27.60032 1003 ft 102 kts 147°
2026-04-25 00:19 68.70395 27.60913 994 ft 91 kts 155°
2026-04-25 00:19 68.69784 27.61361 946 ft 93 kts 173°
2026-04-25 00:19 68.69136 27.61310 913 ft 93 kts 193°
2026-04-25 00:20 68.68502 27.60920 849 ft 92 kts 200°
2026-04-25 00:20 68.67921 27.60230 791 ft 92 kts 209°
2026-04-25 00:20 68.67394 27.59428 844 ft 84 kts 215°
2026-04-25 00:20 68.66902 27.58595 855 ft 82 kts 217°
2026-04-25 00:21 68.66446 27.57663 896 ft 84 kts 225°
2026-04-25 00:21 68.66022 27.56403 900 ft 94 kts 233°
2026-04-25 00:21 68.65573 27.54955 906 ft 103 kts 233°
2026-04-25 00:21 68.65095 27.53425 861 ft 108 kts 231°
2026-04-25 00:22 68.64656 27.51899 797 ft 87 kts 232°
2026-04-25 00:22 68.64268 27.50881 724 ft 67 kts 225°
2026-04-25 00:22 68.63945 27.50010 740 ft 72 kts 228°
2026-04-25 00:22 68.63587 27.49066 874 ft 69 kts 229°
2026-04-25 00:23 68.63272 27.48096 846 ft 65 kts 233°
2026-04-25 00:23 68.62998 27.47214 782 ft 58 kts 232°
2026-04-25 00:23 68.62731 27.46413 732 ft 57 kts 231°
2026-04-25 00:23 68.62447 27.45597 709 ft 63 kts 233°
2026-04-25 00:24 68.62134 27.44701 678 ft 69 kts 229°
2026-04-25 00:24 68.61807 27.43718 607 ft 70 kts 230°
2026-04-25 00:24 68.61479 27.42744 515 ft 68 kts 230°
2026-04-25 00:24 68.61205 27.41919 466 ft 43 kts 227°
2026-04-25 00:25 68.60991 27.41303 468 ft 59 kts 227°
2026-04-25 00:25 68.60642 27.40280 526 ft 82 kts 229°
2026-04-25 00:25 68.60234 27.39098 646 ft 85 kts 228°
2026-04-25 00:25 68.59757 27.38467 849 ft 79 kts 161°
2026-04-25 00:26 68.59335 27.39393 993 ft 72 kts 138°
2026-04-25 00:26 68.58949 27.40410 1040 ft 80 kts 137°
2026-04-25 00:26 68.58646 27.41616 1114 ft 80 kts 92°
2026-04-25 00:26 68.58871 27.43017 1152 ft 85 kts 51°
2026-04-25 00:27 68.59228 27.44282 1222 ft 83 kts 46°
2026-04-25 00:27 68.59614 27.45470 1281 ft 84 kts 43°
2026-04-25 00:27 68.60035 27.46605 1266 ft 90 kts 37°
2026-04-25 00:27 68.60523 27.47589 1341 ft 86 kts 32°
2026-04-25 00:28 68.61046 27.48480 1300 ft 91 kts 24°
2026-04-25 00:28 68.61630 27.49053 1254 ft 89 kts 350°
2026-04-25 00:28 68.62016 27.47932 1034 ft 82 kts 303°
2026-04-25 00:28 68.62338 27.46733 816 ft 73 kts 309°
2026-04-25 00:29 68.62440 27.45649 707 ft 55 kts 240°
2026-04-25 00:29 68.62197 27.44856 637 ft 57 kts 226°
2026-04-25 00:29 68.61920 27.44026 605 ft 60 kts 227°
2026-04-25 00:29 68.61637 27.43229 561 ft 59 kts 230°
2026-04-25 00:30 68.61366 27.42419 494 ft 58 kts 230°
2026-04-25 00:30 68.61141 27.41745 466 ft 28 kts 226°
2026-04-25 00:30 68.61049 27.41514 467 ft 14 kts 187°
2026-04-25 00:30 68.60975 27.41635 469 ft 11 kts 136°
2026-04-25 00:31 68.60940 27.41729 472 ft 3 kts 146°
2026-04-25 00:31 68.60891 27.41670 474 ft 12 kts 227°
2026-04-25 00:31 68.60831 27.41510 475 ft 13 kts 230°
2026-04-25 00:31 68.60764 27.41386 473 ft 12 kts 165°
2026-04-25 00:32 68.60698 27.41545 472 ft 11 kts 135°
2026-04-25 00:32 68.60678 27.41713 479 ft 9 kts 44°
2026-04-25 00:32 68.60708 27.41795 479 ft 4 kts 46°
2026-04-25 00:32 68.60711 27.41804 476 ft 0 kts 43°